Location: Chenereilles
(45.4866°N, 4.0790°E)
Time: 16:42:45
(UTC+00:00)

Cosmos 1538 Rocket - Pass Details

Date: 12 November 2019
Orbit: 751 x 793 km, 74.0° (Epoch: 13 December)

Event Time Altitude Azimuth Distance (km) Brightness Sun altitude
Rises 17:42:05 0° 192° (SSW) 3,213 7.5 -15.0°
Reaches altitude 10° 17:44:26 10° 189° (S) 2,297 6.7 -15.4°
Maximum altitude 17:49:37 68° 108° (ESE) 833 3.9 -16.3°
Enters shadow 17:54:52 10° 26° (NNE) 2,332 6.2 -17.2°
